Regional Weather Roundup
Issued by NWS Kansas City/Pleasant Hill, MO

Home | Current Version | Previous Version | Text Only | Print | Product List | Glossary On
Versions: 1 2 3 4 5 6 7 8 9 10 11 12 13 14 15 16 17 18 19 20 21 22 23 24 25 26 27 28 29 30 31 32 33 34 35 36 37 38 39 40 41 42 43 44 45 46 47 48 49 50
000
ASUS43 KEAX 240104
RWREAX

WEATHER ROUNDUP FOR EASTERN KANSAS AND NORTHWEST MISSOURI
NATIONAL WEATHER SERVICE KANSAS CITY/PLEASANT HILL MO
800 PM CDT TUE SEP 23 2014

KSZ040-057-103>105-MOZ028-029-037-043-240200-
...KANSAS CITY METROPOLITAN AREA...

CITY           SKY/WX    TMP DP  RH WIND       PRES   REMARKS
K.C. INTL      LGT RAIN  68  53  58 NE7       30.15S
K.C. DOWNTOWN  CLOUDY    70  51  51 SE10      30.13F
LEES SUMMIT    MOCLDY    67  51  56 VRB3      30.17R
OLATHE - IXD   LGT RAIN  66  53  63 SE9       30.14F
OLATHE - OJC   CLOUDY    66  53  63 SE8       30.14F
LAWRENCE       CLOUDY    68  54  60 E6        30.14R

$$

MOZ001>008-011>017-020>025-030>033-038>040-044>046-053-054-240200-
...NORTHERN AND CENTRAL MISSOURI...

CITY           SKY/WX    TMP DP  RH WIND       PRES   REMARKS
ST. JOSEPH     CLOUDY    67  53  61 E6        30.16R
MOSBY          CLOUDY    68  50  52 SE6       30.15R
WHITEMAN AFB   CLOUDY    65  53  67 SE3       30.17S
CLINTON        PTCLDY    66  54  63 CALM      30.17S
SEDALIA        MOCLDY    65  51  60 E3        30.18S
WARSAW         NOT AVBL
MARSHALL       MOCLDY    66  54  63 SE7       30.18S
CHILLICOTHE      N/A     67  53  61 CALM      30.19R
MOBERLY        CLOUDY    61  50  67 E6        30.20
KIRKSVILLE     CLOUDY    61  51  70 SE6       30.21S

$$

MOZ041-047>049-056>058-063>065-088>090-097-240200-
...EASTERN AND SOUTHERN MISSOURI...

CITY           SKY/WX    TMP DP  RH WIND       PRES   REMARKS
ST. LOUIS INTL CLOUDY    67  50  54 E7        30.23S
SPIRIT OF STL  MOCLDY    61  56  83 CALM      30.21S
COLUMBIA       MOCLDY    64  50  60 E5        30.19S
JEFFERSON CITY MOCLDY    65  48  54 SE5       30.18S
MEXICO         CLOUDY    64  57  77 CALM      30.21S
ROLLA          PTCLDY    63  48  58 E5        30.19S
LEBANON        MOCLDY    64  46  52 E3        30.20R
OSAGE BEACH    MOCLDY    63  46  55 E3        30.18R
SPRINGFIELD    PTCLDY    63  49  60 SE6       30.17S
BRANSON        PTCLDY    59  48  67 E3        30.19S
NEVADA         CLEAR     63  50  63 SE7       30.16S
JOPLIN         CLEAR     64  49  57 E6        30.16R
WEST PLAINS    PTCLDY    63  48  58 E3        30.22R

$$

IAZ060-094-KSZ022-034>040-054-083-096-NEZ052-066-093-240200-
...KANSAS...SOUTHEAST NEBRASKA AND IOWA...

CITY           SKY/WX    TMP DP  RH WIND       PRES   REMARKS
TOPEKA         LGT RAIN  67  59  75 SE10      30.11R
MANHATTAN      CLOUDY    66  58  75 SE8       30.08R
EMPORIA        LGT RAIN  64  58  80 SE10      30.11R
CHANUTE        PTCLDY    68  54  60 SE8       30.12F
WICHITA        MOCLDY    72  52  49 SE16      30.06R
OMAHA          CLOUDY    65  53  65 SE18      30.09S
LINCOLN        CLOUDY    65  53  65 S17       30.07R
FALLS CITY     LGT RAIN  61  61 100 SE10      30.12F
LAMONI         LGT RAIN  63  55  75 S9        30.17R
DES MOINES     CLOUDY    67  53  61 SE9       30.16S

$$



USA.gov is the U.S. government's official web portal to all federal, state and local government web resources and services.